Mineral Point, WI

10:18 AM CDT on October 18, 2017 (GMT -0500)
Iowa County

Weather History for KMRJ - November, 2013

Change the Weather History Date:

Friday, November 29, 2013

  Actual Average (KLNR) Record (KLNR)
Temperature  
Mean Temperature 24 °F -  
Max Temperature 32 °F 39 °F 62 °F (1998)
Min Temperature 15 °F 24 °F 9 °F (2013)
Degree Days  
Heating Degree Days 42    
Moisture  
Dew Point 16 °F    
Average Humidity 69    
Maximum Humidity 86    
Minimum Humidity 55    
Precipitation  
Precipitation 0.00 in - - ()
Sea Level Pressure  
Sea Level Pressure 30.45 in    
Wind  
Wind Speed 5 mph (SE)    
Max Wind Speed 14 mph    
Max Gust Speed 18 mph    
Visibility 10 miles    
Events      
Averages and records for this station are not official NWS values.
T = Trace of Precipitation, MM = Missing Value Source: NWS Daily Summary

Daily Weather History Graph

Daily Weather History Graph

Search for Another Location

Airport or City:

Trip Planner

Search our weather history database for the weather conditions in past years. The results will help you decide how hot, cold, wet, or windy it might be!

Date:

Astronomy

Nov. 29, 2013 Rise Set
Actual Time 7:10 AM CST 4:28 PM CST
Civil Twilight 6:38 AM CST 4:59 PM CST
Nautical Twilight 6:03 AM CST 5:35 PM CST
Astronomical Twilight 5:29 AM CST 6:09 PM CST
Moon 3:11 AM CST (11/29) 2:17 PM CST (11/29)
Length of Visible Light 10h 21m
Length of Day
9h 18m
Waning Crescent, 14% of the Moon is Illuminated
Nov 29
Waning Crescent
Dec 2
New
Dec 9
First Quarter
Dec 17
Full
Dec 25
Last Quarter

Hourly Weather History & Observations

Time (CST) Temp. Windchill Dew Point Humidity Pressure Visibility Wind Dir Wind Speed Gust Speed Precip Events Conditions
12:15 AM 19.4 °F - 14.0 °F 80% 30.46 in 10.0 mi Calm Calm - N/A   Clear
12:35 AM 17.6 °F - 12.2 °F 79% 30.47 in 10.0 mi Calm Calm - N/A   Clear
12:55 AM 15.8 °F - 12.2 °F 86% 30.47 in 10.0 mi Calm Calm - N/A   Clear
1:15 AM 17.6 °F - 14.0 °F 86% 30.47 in 10.0 mi Calm Calm - N/A   Clear
1:35 AM 17.6 °F - 12.2 °F 79% 30.47 in 10.0 mi Calm Calm - N/A   Clear
1:55 AM 19.4 °F - 12.2 °F 74% 30.47 in 10.0 mi Calm Calm - N/A   Clear
2:15 AM 21.2 °F - 12.2 °F 68% 30.48 in 10.0 mi Calm Calm - N/A   Clear
2:35 AM 19.4 °F - 12.2 °F 74% 30.49 in 10.0 mi Calm Calm - N/A   Clear
2:55 AM 15.8 °F - 12.2 °F 86% 30.49 in 10.0 mi Calm Calm - N/A   Clear
3:15 AM 17.6 °F - 12.2 °F 79% 30.50 in 10.0 mi Calm Calm - N/A   Clear
3:35 AM 17.6 °F - 14.0 °F 86% 30.50 in 10.0 mi Calm Calm - N/A   Clear
3:55 AM 17.6 °F - 10.4 °F 73% 30.50 in 10.0 mi Calm Calm - N/A   Clear
4:15 AM 21.2 °F - 14.0 °F 74% 30.51 in 10.0 mi Calm Calm - N/A   Clear
4:35 AM 17.6 °F 12.3 °F 12.2 °F 79% 30.51 in 10.0 mi East 3.5 mph - N/A   Clear
4:55 AM 19.4 °F 14.3 °F 12.2 °F 74% 30.51 in 10.0 mi ESE 3.5 mph - N/A   Clear
5:15 AM 19.4 °F 14.3 °F 12.2 °F 74% 30.52 in 10.0 mi ESE 3.5 mph - N/A   Clear
5:35 AM 17.6 °F 10.7 °F 12.2 °F 79% 30.52 in 10.0 mi ESE 4.6 mph - N/A   Clear
5:55 AM 17.6 °F 10.7 °F 12.2 °F 79% 30.53 in 10.0 mi ESE 4.6 mph - N/A   Clear
6:15 AM 17.6 °F 10.7 °F 12.2 °F 79% 30.54 in 10.0 mi ESE 4.6 mph - N/A   Clear
6:35 AM 15.8 °F 7.2 °F 12.2 °F 86% 30.54 in 10.0 mi ESE 5.8 mph - N/A   Clear
6:55 AM 15.8 °F 7.2 °F 10.4 °F 79% 30.54 in 10.0 mi ESE 5.8 mph - N/A   Clear
7:15 AM 17.6 °F 8.2 °F 12.2 °F 79% 30.54 in 10.0 mi ESE 6.9 mph - N/A   Clear
7:35 AM 19.4 °F 11.5 °F 12.2 °F 74% 30.55 in 10.0 mi ESE 5.8 mph - N/A   Clear
7:55 AM 19.4 °F 11.5 °F 14.0 °F 80% 30.55 in 10.0 mi SE 5.8 mph - N/A   Clear
8:15 AM 19.4 °F 11.5 °F 14.0 °F 80% 30.55 in 10.0 mi SE 5.8 mph - N/A   Clear
8:35 AM 21.2 °F 12.6 °F 14.0 °F 74% 30.55 in 10.0 mi SE 6.9 mph - N/A   Clear
8:55 AM 21.2 °F 13.6 °F 15.8 °F 80% 30.55 in 10.0 mi SE 5.8 mph - N/A   Clear
9:15 AM 21.2 °F 13.6 °F 15.8 °F 80% 30.56 in 10.0 mi SE 5.8 mph - N/A   Clear
9:35 AM 23.0 °F 13.9 °F 15.8 °F 74% 30.56 in 10.0 mi SE 8.1 mph - N/A   Clear
9:55 AM 24.8 °F 16.1 °F 15.8 °F 69% 30.56 in 10.0 mi SE 8.1 mph - N/A   Clear
10:15 AM 26.6 °F 17.5 °F 17.6 °F 69% 30.56 in 10.0 mi SE 9.2 mph - N/A   Clear
10:35 AM 28.4 °F 19.1 °F 15.8 °F 59% 30.55 in 10.0 mi SSE 10.4 mph - N/A   Clear
10:55 AM 28.4 °F 19.1 °F 15.8 °F 59% 30.54 in 10.0 mi SSE 10.4 mph - N/A   Clear
11:15 AM 28.4 °F 18.5 °F 15.8 °F 59% 30.53 in 10.0 mi South 11.5 mph - N/A   Clear
11:35 AM 28.4 °F 19.7 °F 15.8 °F 59% 30.52 in 10.0 mi South 9.2 mph - N/A   Clear
11:55 AM 28.4 °F 19.1 °F 17.6 °F 64% 30.52 in 10.0 mi South 10.4 mph - N/A   Clear
12:15 PM 30.2 °F 21.9 °F 17.6 °F 60% 30.51 in 10.0 mi South 9.2 mph - N/A   Clear
12:35 PM 32.0 °F 24.8 °F 17.6 °F 55% 30.50 in 10.0 mi South 8.1 mph - N/A   Clear
12:55 PM 32.0 °F 23.6 °F 17.6 °F 55% 30.49 in 10.0 mi South 10.4 mph - N/A   Clear
1:15 PM 30.2 °F 21.3 °F 17.6 °F 60% 30.49 in 10.0 mi South 10.4 mph - N/A   Clear
1:35 PM 32.0 °F 23.6 °F 17.6 °F 55% 30.47 in 10.0 mi SSE 10.4 mph - N/A   Clear
1:55 PM 32.0 °F 23.6 °F 19.4 °F 60% 30.46 in 10.0 mi SSE 10.4 mph - N/A   Clear
2:15 PM 32.0 °F 24.2 °F 17.6 °F 55% 30.46 in 10.0 mi South 9.2 mph - N/A   Clear
2:35 PM 32.0 °F 23.6 °F 17.6 °F 55% 30.45 in 10.0 mi SSE 10.4 mph - N/A   Clear
2:55 PM 32.0 °F 24.8 °F 19.4 °F 60% 30.44 in 10.0 mi SSE 8.1 mph - N/A   Clear
3:15 PM 32.0 °F 23.6 °F 19.4 °F 60% 30.43 in 10.0 mi SSE 10.4 mph - N/A   Clear
3:35 PM 32.0 °F 23.6 °F 19.4 °F 60% 30.43 in 10.0 mi SSE 10.4 mph - N/A   Clear
3:55 PM 30.2 °F 21.9 °F 19.4 °F 64% 30.42 in 10.0 mi SE 9.2 mph - N/A   Clear
4:15 PM 30.2 °F 21.9 °F 19.4 °F 64% 30.41 in 10.0 mi SE 9.2 mph - N/A   Clear
4:35 PM 30.2 °F 23.4 °F 19.4 °F 64% 30.41 in 10.0 mi SE 6.9 mph - N/A   Clear
4:55 PM 30.2 °F 23.4 °F 19.4 °F 64% 30.40 in 10.0 mi SE 6.9 mph - N/A   Clear
5:15 PM 30.2 °F 21.9 °F 19.4 °F 64% 30.40 in 10.0 mi SE 9.2 mph - N/A   Scattered Clouds
5:35 PM 30.2 °F 21.9 °F 19.4 °F 64% 30.39 in 10.0 mi SE 9.2 mph - N/A   Scattered Clouds
5:55 PM 30.2 °F 21.9 °F 19.4 °F 64% 30.38 in 10.0 mi SE 9.2 mph - N/A   Clear
6:15 PM 30.2 °F 21.3 °F 19.4 °F 64% 30.37 in 10.0 mi SE 10.4 mph - N/A   Clear
6:35 PM 30.2 °F 21.9 °F 19.4 °F 64% 30.37 in 10.0 mi SE 9.2 mph - N/A   Clear
6:55 PM 30.2 °F 21.3 °F 19.4 °F 64% 30.37 in 10.0 mi SE 10.4 mph - N/A   Clear
7:15 PM 30.2 °F 21.3 °F 19.4 °F 64% 30.36 in 10.0 mi SE 10.4 mph - N/A   Clear
7:35 PM 30.2 °F 20.8 °F 19.4 °F 64% 30.34 in 10.0 mi SE 11.5 mph - N/A   Clear
7:55 PM 30.2 °F 20.2 °F 19.4 °F 64% 30.34 in 10.0 mi SE 12.7 mph - N/A   Clear
8:15 PM 30.2 °F 19.8 °F 19.4 °F 64% 30.34 in 10.0 mi SSE 13.8 mph 18.4 mph N/A   Clear
8:35 PM 30.2 °F 20.2 °F 19.4 °F 64% 30.33 in 10.0 mi SSE 12.7 mph - N/A   Clear
8:55 PM 30.2 °F 19.8 °F 19.4 °F 64% 30.33 in 10.0 mi SSE 13.8 mph - N/A   Clear
9:15 PM 30.2 °F 20.8 °F 19.4 °F 64% 30.33 in 10.0 mi SSE 11.5 mph - N/A   Clear
9:35 PM 30.2 °F 21.9 °F 19.4 °F 64% 30.33 in 10.0 mi SSE 9.2 mph - N/A   Clear
9:55 PM 30.2 °F 21.9 °F 21.2 °F 69% 30.32 in 10.0 mi SSE 9.2 mph - N/A   Clear
10:15 PM 30.2 °F 21.9 °F 21.2 °F 69% 30.31 in 10.0 mi SSE 9.2 mph - N/A   Clear
10:35 PM 30.2 °F 21.9 °F 21.2 °F 69% 30.31 in 10.0 mi SSE 9.2 mph - N/A   Clear
10:55 PM 30.2 °F 21.3 °F 21.2 °F 69% 30.30 in 10.0 mi SSE 10.4 mph - N/A   Clear
11:15 PM 30.2 °F 21.3 °F 21.2 °F 69% 30.30 in 10.0 mi SSE 10.4 mph - N/A   Clear
11:35 PM 30.2 °F 20.8 °F 21.2 °F 69% 30.29 in 10.0 mi SSE 11.5 mph - N/A   Clear
11:55 PM 30.2 °F 21.3 °F 21.2 °F 69% 30.28 in 10.0 mi SSE 10.4 mph - N/A   Clear